This is the latest recevied weather packets stored in our database for station/object VA6GSB-13. If no packets are shown the sender has not sent any weather packets the latest 10 day(s).
| Time | Temp. | Humidity | Pressure | Rain* | Wind** | Luminosity | Snow |
|---|---|---|---|---|---|---|---|
| 1787619263 | 22.22° C | 47% | 1019.7 hPa | 0 mm | - | 169 W/m² | - |
| 1787619041 | 22.22° C | 47% | 1020 hPa | 0 mm | - | 178 W/m² | - |
| 1787618739 | 22.22° C | 46% | 1020 hPa | 0 mm | - | 189 W/m² | - |
| 1787618440 | 22.22° C | 45% | 1020 hPa | 0 mm | - | 209 W/m² | - |
| 1787618140 | 22.22° C | 45% | 1020 hPa | 0 mm | - | 231 W/m² | - |
| 1787618063 | 22.22° C | 45% | 1019.5 hPa | 0 mm | - | 235 W/m² | - |
| 1787617839 | 22.22° C | 45% | 1020 hPa | 0 mm | - | 258 W/m² | - |
| 1787617764 | 22.22° C | 45% | 1019.5 hPa | 0 mm | - | 266 W/m² | - |
| 1787617539 | 22.22° C | 46% | 1019 hPa | 0 mm | - | 281 W/m² | - |
| 1787617240 | 22.22° C | 44% | 1019 hPa | 0 mm | - | 302 W/m² | - |
| 1787617164 | 22.22° C | 44% | 1019.4 hPa | 0 mm | - | 306 W/m² | - |
| 1787616947 | 22.22° C | 43% | 1019 hPa | 0 mm | - | 317 W/m² | - |
| 1787616649 | 22.22° C | 44% | 1019 hPa | 0 mm | - | 330 W/m² | - |
| 1787616564 | 22.22° C | 44% | 1019.3 hPa | 0 mm | - | 337 W/m² | - |
| 1787616263 | 22.22° C | 45% | 1019.4 hPa | 0 mm | - | 349 W/m² | - |
| 1787615964 | 22.22° C | 45% | 1019.3 hPa | 0 mm | - | 361 W/m² | - |
| 1787615739 | 22.22° C | 46% | 1019 hPa | 0 mm | - | 373 W/m² | - |
| 1787615664 | 22.22° C | 47% | 1019.3 hPa | 0 mm | - | 373 W/m² | - |
| 1787615364 | 21.67° C | 47% | 1019.3 hPa | 0 mm | - | 369 W/m² | - |
| 1787615064 | 21.67° C | 48% | 1019.3 hPa | 0 mm | - | 315 W/m² | - |
| 1787614840 | 21.67° C | 48% | 1019 hPa | 0 mm | - | 309 W/m² | - |
| 1787614544 | 21.67° C | 50% | 1019 hPa | 0 mm | - | 243 W/m² | - |
| 1787614241 | 22.22° C | 48% | 1019 hPa | 0 mm | - | 246 W/m² | - |
| 1787613939 | 22.22° C | 48% | 1019 hPa | 0 mm | - | 274 W/m² | - |
| 1787613864 | 22.22° C | 48% | 1019.3 hPa | 0 mm | - | 290 W/m² | - |
* Rain latest hour (hover to see other rain measurements)
** Current wind speed in m/s (hover to see current wind gust speed)